7 * 24
多渠道服务支持
STARLINK-35480是美国太空探索技术公司(SpaceX)星链卫星互联网星座的一员,于2025年10月29日由美国发射升空。该卫星运行在近地轨道,属于低轨通信卫星,旨在为全球提供高速、低延迟的宽带互联网服务,尤其聚焦覆盖偏远网络空白区域。它的成功入轨进一步扩充了星链星座规模,增强了整个网络的覆盖能力与服务稳定性,是星链全球通信网络部署进程中的重要一环,同时也推动了全球卫星通信技术的发展。
美国
(US)
| 数据来源 | 国际轨道数据 |
| 星历时间: | 2026-05-25T10:50:54+0800 8小时前 查看轨道信息 |
| 半长轴: | 6853.336km |
| 偏心率: | 0.0001601 |
| 轨道倾角: | 53.160° |
| 近地点辐角 | 87.650° |
| 升交点赤经 | 289.207° |
| 平近点角 | 272.469° |
| 近地点: | 474.101km |
| 远地点: | 476.297km |
| 周期: | 94.105分钟 |
| 每日圈数: | 15.302055 |